AO-07 1 07530U 74089B 20016.16908902 -.00000022 00000-0 14595-3 0 9999 2 07530 101.7781 346.9052 0012031 300.4647 70.4147 12.53641641 67023 UO-11 1 14781U 84021B 20016.81750709 .00000056 00000-0 12993-4 0 9991 2 14781 97.5976 36.3249 0008151 353.3868 6.7238 14.83135377930206 LO-19 1 20442U 90005G 20016.10449875 -.00000001 00000-0 16041-4 0 9991 2 20442 098.6747 322.9927 0010734 244.6919 115.3153 14.32942748566593 HUBBLE 1 20580U 90037B 20016.81437404 .00000346 00000-0 10036-4 0 9991 2 20580 28.4686 249.1890 0002575 246.4813 190.7759 15.09326331432966 MET-2/21 1 22782U 93055A 20016.22794144 .00000034 00000-0 17048-4 0 9996 2 22782 082.5496 355.1881 0021299 307.3306 063.7826 13.83822659331852 AO-27 1 22825U 93061C 20016.42789719 -.00000013 00000-0 12998-4 0 9992 2 22825 98.9185 15.0631 0009444 101.3024 258.9219 14.30075734372214 IO-26 1 22826U 93061D 20016.79987209 -.00000004 00000-0 16328-4 0 9998 2 22826 98.9126 15.4092 0009988 90.0144 270.2182 14.30410409372471 FO-29 1 24278U 96046B 20016.25268819 -.00000043 00000-0 -95426-5 0 9998 2 24278 098.5653 146.2936 0351165 051.7796 311.4413 13.53095094156163 NOAA-15 1 25338U 98030A 20016.81871498 .00000001 00000-0 19058-4 0 9994 2 25338 98.7317 42.5314 0010184 352.2886 7.8135 14.25947557127479 GO-32 1 25397U 98043D 20016.09401947 -.00000008 00000-0 15648-4 0 9990 2 25397 98.7130 318.8943 0002086 118.4516 241.6873 14.23677711117957 ISS 1 25544U 98067A 20016.92700830 .00001003 00000-0 25928-4 0 9992 2 25544 51.6456 21.8462 0004979 138.2273 302.8504 15.49569255208415 NO-44 1 26931U 01043C 20016.68911319 -.00000051 00000-0 12229-4 0 9993 2 26931 67.0498 176.6163 0006698 262.9775 97.0564 14.30564599955291 SO-50 1 27607U 02058C 20016.27176007 -.00000024 00000-0 17434-4 0 9996 2 27607 064.5554 122.7102 0066439 214.3744 145.3052 14.75602807918122 CO-55 1 27844U 03031E 20016.48724197 .00000025 00000-0 31010-4 0 9999 2 27844 98.6835 26.5205 0010610 134.2997 225.9053 14.22216047858397 CO-57 1 27848U 03031J 20016.75110445 .00000018 00000-0 28020-4 0 9997 2 27848 98.6907 27.3198 0010346 144.6884 215.4981 14.21805985858272 RS-22 1 27939U 03042A 20016.85929128 .00000028 00000-0 13665-4 0 9997 2 27939 98.0675 153.9320 0014380 115.0300 245.2401 14.66830357871643 NOAA-18 1 28654U 05018A 20016.22875599 .00000065 00000-0 59961-4 0 9990 2 28654 099.0679 071.0598 0013418 304.4406 055.5497 14.12481890755285 CO-58 1 28895U 05043F 20016.83793226 .00000080 00000-0 24250-4 0 9998 2 28895 97.9856 157.6930 0017611 45.7884 314.4762 14.63729780758511 Falconsat-3 1 30776U 07006E 20015.52481835 .00002191 00000-0 60384-4 0 9998 2 30776 35.4332 184.2981 0003205 240.0112 120.0297 15.37066013713136 CO-65 1 32785U 08021C 20016.66147901 .00000160 00000-0 22911-4 0 9995 2 32785 97.5615 11.5116 0011585 281.6577 78.3341 14.88404241635210 AAUSAT2 1 32788U 08021F 20016.24586945 .00000694 00000-0 68516-4 0 9990 2 32788 97.4923 27.5660 0011051 203.0258 157.0469 14.94918335636529 DO-64 1 32789U 08021G 20016.40855810 .00001232 00000-0 85260-4 0 9993 2 32789 97.4393 64.4180 0013576 118.4342 241.8256 15.07390839638857 CO-66 1 32791U 08021J 20016.65644456 .00000183 00000-0 23840-4 0 9995 2 32791 97.5338 17.6316 0011857 249.6470 110.3475 14.90953318635690 RS-30 1 32953U 08025A 20016.79996844 .00000037 00000-0 19437-3 0 9999 2 32953 82.5035 12.8475 0020032 29.8989 330.3229 12.43093809528664 PRISM 1 33493U 09002B 20016.04933271 -.00000048 00000-0 13704-5 0 9994 2 33493 98.1337 310.1193 0014204 199.0031 161.0661 14.96877818596760 NOAA-19 1 33591U 09005A 20016.85998553 .00000044 00000-0 49454-4 0 9994 2 33591 99.1928 18.2555 0014537 140.7587 219.4641 14.12391978563858 TISAT-1 1 36799U 10035E 20016.72586806 .00000395 00000-0 45748-4 0 9993 2 36799 98.1768 181.2787 0013460 109.3436 250.9237 14.91249130516362 JUGNU 1 37839U 11058B 20016.02391072 .00000314 00000-0 25629-4 0 9994 2 37839 19.9606 133.2124 0018901 136.3992 19.4870 14.12669255427172 SRMSAT 1 37841U 11058D 20016.64138134 .00000288 00000-0 12987-4 0 9996 2 37841 19.9702 190.6346 0011914 5.3306 57.9744 14.10647882426655 AO-71 1 37854U 11061E 20016.00691916 .00000354 00000-0 26017-4 0 9999 2 37854 101.7138 028.0556 0159415 158.0017 202.8140 15.06921716448363 HRBE 1 37855U 11061F 20016.25121597 .00000568 00000-0 36196-4 0 9996 2 37855 101.7268 025.6509 0172110 169.4899 190.9985 15.05936254448142 ALMASAT-1 1 38078U 12006B 20016.51421609 .00073959 60361-5 23030-3 0 9997 2 38078 69.4220 12.8102 0101760 287.7769 214.1846 15.83407661430763 HORYU-2 1 38340U 12025D 20016.11939308 .00000094 00000-0 21651-4 0 9993 2 38340 098.3037 065.7556 0011887 164.8744 195.2822 14.75798863401937 RS-40 1 38735U 12041C 20016.30697074 .00000007 00000-0 -21202-4 0 9998 2 38735 82.4768 96.1629 0018010 133.4722 226.7889 12.42579987338839 BEESAT-3 1 39135U 13015F 20016.59930422 .00000782 00000-0 47538-4 0 9992 2 39135 64.8666 74.9672 0045132 270.4329 89.1625 15.17859680372403 BEESAT-2 1 39136U 13015G 20016.18997583 .00000578 00000-0 38650-4 0 9997 2 39136 64.8715 80.7578 0030996 279.4717 80.2906 15.17278586372258 ZACUBE-1 1 39417U 13066B 20016.83189719 .00000164 00000-0 26860-4 0 9992 2 39417 97.5614 23.3881 0060185 59.1945 301.5173 14.81207329332449 TRITON-1 1 39427U 13066M 20016.18046721 .00000108 00000-0 25355-4 0 9992 2 39427 97.7047 345.8212 0112957 207.8635 151.6493 14.67930162329363 GOMX-1 1 39430U 13066Q 20016.83900020 .00000161 00000-0 38536-4 0 9993 2 39430 97.7748 324.7307 0150112 305.8768 52.8576 14.59339584327541 LO-74 1 39440U 13066AA 20016.41321756 .00000150 00000-0 27636-4 0 9998 2 39440 97.6167 7.5098 0081457 116.7425 244.2150 14.75943574331204 AO-73 1 39444U 13066AE 20016.10647136 .00000206 00000-0 31541-4 0 9993 2 39444 97.5574 24.8351 0059223 54.6133 306.0593 14.82045107331240 SPROUT 1 39770U 14029E 20016.53361200 .00000668 00000-0 79595-4 0 9990 2 39770 97.8917 123.5858 0010191 108.9754 251.2619 14.87578348306322 DUCHIFAT-1 1 40021U 14033M 20016.25267692 .00000204 00000-0 26556-4 0 9990 2 40021 097.9352 306.6429 0014299 073.9535 286.3257 14.90787476303069 NANOSATCBR1 1 40024U 14033Q 20016.52682265 .00000273 00000-0 34193-4 0 9992 2 40024 97.9222 303.7686 0013613 76.9307 283.3429 14.89975953302985 EO-79 1 40025U 14033R 20016.71840802 .00000200 00000-0 27253-4 0 9996 2 40025 97.9122 301.0916 0013861 82.4691 277.8100 14.89054626302872 DTUSAT-2 1 40030U 14033W 20016.23535787 .00000170 00000-0 24291-4 0 9997 2 40030 097.9019 298.3907 0013332 080.2792 279.9929 14.88638911302216 EO-80 1 40032U 14033Y 20016.51770592 .00000202 00000-0 27741-4 0 9994 2 40032 97.9026 298.6737 0013257 80.0806 280.1906 14.88584853302753 ANTELSAT 1 40034U 14033AA 20016.34699671 .00000145 00000-0 28690-4 0 9995 2 40034 97.7322 239.1912 0059628 132.3774 228.2505 14.74191143299859 VELOX-1 1 40057U 14034E 20016.82032833 .00000270 00000-0 45281-4 0 9999 2 40057 98.2581 149.8270 0009562 273.9457 86.0658 14.77784122299096 DAURIA DX 1 1 40071U 14037C 20016.79377009 .00000076 00000-0 17286-4 0 9999 2 40071 98.4458 186.8405 0007175 265.8594 94.1804 14.81325732298655 UKUBE-1 1 40074U 14037F 20016.80439816 .00000232 00000-0 34919-4 0 9995 2 40074 98.4499 196.0742 0003100 247.6548 112.4371 14.84175095299114 HODOYOSHI-1 1 40299U 14070B 20016.79783600 .00000545 00000-0 25537-4 0 9995 2 40299 97.3366 96.9959 0013195 20.2491 75.3350 15.23760239288564 CHUBUSAT-1 1 40300U 14070C 20016.44996339 .00000375 00000-0 19174-4 0 9996 2 40300 97.3079 90.0544 0021029 35.2213 335.6793 15.22324483288239 QSAT-EOS 1 40301U 14070D 20016.80937988 .00001157 00000-0 46740-4 0 9990 2 40301 97.3095 94.6652 0025842 12.9390 83.1394 15.26493918288644 FIREBIRD FU3 1 40377U 15003B 20016.31956330 .00001208 00000-0 50478-4 0 9998 2 40377 99.1143 45.0894 0126302 105.1274 256.3967 15.19494535274056 FIREBIRD FU4 1 40378U 15003C 20016.83213817 .00001184 00000-0 49502-4 0 9991 2 40378 99.1146 45.7964 0126481 103.3108 258.2261 15.19509164274131 GRIFEX 1 40379U 15003D 20016.77094296 .00000800 00000-0 37772-4 0 9993 2 40379 99.1197 38.5084 0134844 125.4647 235.9254 15.15999664273717 NO-84 1 40654U 15025D 20014.78687802 .00007712 00000-0 10044-3 0 8263 2 40654 54.9874 291.9568 0128862 146.1555 214.7651 15.50682427145008 DEORBITSAIL 1 40719U 15032E 20015.98339139 .00000297 00000-0 49383-4 0 9994 2 40719 97.8877 268.2429 0016284 348.6751 11.4090 14.76889936243440 NUDT-PHONESAT 1 40900U 15049B 20016.79412466 .00001570 00000-0 68628-4 0 9997 2 40900 97.4346 29.1035 0013394 153.3658 19.7964 15.23511239239944 XW-2A 1 40903U 15049E 20016.83205456 .00001384 00000-0 33772-4 0 9999 2 40903 97.3109 65.5296 0015337 96.6222 19.8930 15.42528757242943 XW-2C 1 40906U 15049H 20016.83715741 .00000278 00000-0 17944-4 0 9999 2 40906 97.4727 20.4899 0014567 177.1630 259.2098 15.15894788239136 XW-2D 1 40907U 15049J 20016.78895505 .00000647 00000-0 36986-4 0 9998 2 40907 97.4714 20.1315 0014058 173.9706 271.7513 15.16107569239143 LILACSAT-2 1 40908U 15049K 20016.83382012 -.00000062 00000-0 21027-6 0 9993 2 40908 97.4854 18.7378 0015365 183.3570 261.2127 15.13933149238903 XW-2E 1 40909U 15049L 20016.84678449 .00000613 00000-0 33312-4 0 9996 2 40909 97.4618 23.3983 0013692 166.7609 314.5648 15.18139741239378 XW-2F 1 40910U 15049M 20016.80614438 .00000871 00000-0 46551-4 0 9997 2 40910 97.4652 22.4823 0014941 165.7573 272.1994 15.17652981239185 XW-2B 1 40911U 15049N 20016.83800093 .00000311 00000-0 19638-4 0 9990 2 40911 97.4733 20.8622 0013910 174.8493 306.1383 15.16033101239043 DCBB 1 40912U 15049P 20016.77687095 .00000750 00000-0 37945-4 0 9997 2 40912 97.4499 26.4231 0015553 146.2368 299.5512 15.20007364239529 TW-1C 1 40926U 15051B 20016.82084177 .00011365 00000-0 13921-3 0 9994 2 40926 97.1084 68.0047 0005228 311.7101 170.6920 15.60510326243180 TW-1A 1 40928U 15051D 20016.79891509 .00001994 00000-0 48922-4 0 9994 2 40928 97.1254 48.2841 0011692 32.2399 85.0519 15.41816286241846 IO-86 1 40931U 15052B 20015.55554689 .00000603 00000-0 -52684-5 0 9995 2 40931 5.9989 352.8787 0014085 259.9842 99.8649 14.76623612232477 LQSat 1 40958U 15057A 20016.42364651 .00000012 00000-0 94509-5 0 9999 2 40958 97.8747 84.6153 0016766 282.5056 77.4277 14.73104445229977 AO-85 1 40967U 15058D 20015.10630426 .00000098 00000-0 30212-4 0 9297 2 40967 64.7727 239.4467 0175716 131.7610 229.8669 14.76053931138791 ATHENOXAT-1 1 41168U 15077C 20016.54357707 .00001617 00000-0 49396-4 0 9997 2 41168 14.9885 103.0495 0011383 159.9175 200.1594 15.14041789226137 ChubuSat-2 1 41338U 16012B 20016.01076031 .00000252 00000-0 12831-4 0 9994 2 41338 31.0021 241.7386 0013625 35.9673 324.1878 15.00231695214674 ChubuSat-3 1 41339U 16012C 20016.75426068 .00000328 00000-0 18710-4 0 9991 2 41339 31.0115 234.8393 0013595 50.2229 309.9611 15.00402093214783 Horyu-4 1 41340U 16012D 20016.26235325 .00000356 00000-0 20313-4 0 9996 2 41340 031.0036 227.2877 0013711 068.1071 292.1021 15.01396593214835 OUFTI-1 1 41458U 16025C 20016.72945121 .00000512 00000-0 30094-4 0 9994 2 41458 98.0992 119.3906 0164881 4.4165 355.8470 15.06384717204480 e-st@r-II 1 41459U 16025D 20016.79893631 .00000937 00000-0 51556-4 0 9997 2 41459 98.0989 118.9932 0166222 5.9442 354.3703 15.05985727204464 AAUSAT4 1 41460U 16025E 20016.56256243 .00001194 00000-0 62991-4 0 9997 2 41460 98.0947 120.5663 0155341 357.0451 2.9851 15.08088357204591 LO-87 1 41557U 16033B 20016.77872694 .00000825 00000-0 33239-4 0 9993 2 41557 97.4100 108.0176 0012019 267.8317 92.1546 15.27665884202468 NuSat2 1 41558U 16033C 20016.80917834 .00000930 00000-0 35020-4 0 9991 2 41558 97.4139 109.8011 0011069 266.2132 93.7843 15.29607621202554 Lapan A3 1 41603U 16040E 20016.85006355 .00000080 00000-0 68784-5 0 9992 2 41603 97.3324 74.9726 0014163 24.2040 35.6734 15.19786724197966 Swayam 1 41607U 16040J 20016.15237144 .00000975 00000-0 43296-4 0 9994 2 41607 097.3400 078.9958 0013479 014.6368 345.5257 15.23815402198078 Pratham 1 41783U 16059A 20016.20728788 .00000024 00000-0 13717-4 0 9994 2 41783 098.0403 075.7946 0034840 079.3599 281.1524 14.63031988176479 AlSat 1N 1 41789U 16059G 20016.83500077 .00000088 00000-0 25509-4 0 9990 2 41789 98.0427 78.8742 0029600 66.2841 294.1451 14.64290660176694 ScatSat 1 41790U 16059H 20016.78213246 .00000019 00000-0 15688-4 0 9996 2 41790 98.1829 61.4415 0006610 41.1649 319.0035 14.50927419175083 TY-1 1 41844U 16066D 20016.85561638 .00000636 00000-0 28648-4 0 9998 2 41844 97.4040 26.7483 0015490 155.3074 325.0448 15.24597065177017 Pegasus-1 1 41846U 16066F 20016.11233786 .00000148 00000-0 33587-4 0 9995 2 41846 098.6853 064.3861 0366514 329.8249 028.2268 14.37686282166934 CAS-2T 1 41847U 16066G 20016.82959414 .00000003 00000-0 11661-4 0 9996 2 41847 98.6784 65.6211 0365077 323.7359 33.9572 14.38034042167483 EO-88 1 42017U 17008BX 20016.46439841 .00001063 00000-0 44066-4 0 9992 2 42017 97.3801 86.1460 0007412 132.8616 227.3246 15.26062794162210 nSIGHT1 1 42726U 98067MF 20016.49649471 .00051802 00000-0 22055-3 0 9997 2 42726 51.6312 296.9855 0001151 222.9901 137.1012 15.84710589151233 CAS-4B 1 42759U 17034B 20016.73508990 .00000038 00000-0 15811-4 0 9993 2 42759 43.0165 146.0706 0010391 153.5881 345.0386 15.09721675142882 CAS-4A 1 42761U 17034D 20016.75452936 .00000142 00000-0 22107-4 0 9998 2 42761 43.0169 145.3638 0010768 155.2116 349.1676 15.09800525142882 UCLSat 1 42765U 17036A 20016.10669429 .00000849 00000-0 38799-4 0 9998 2 42765 97.3242 74.3036 0010824 198.1653 161.9199 15.23173962142646 NIUSat 1 42766U 17036B 20016.56958710 .00000611 00000-0 30184-4 0 9990 2 42766 97.3236 72.6371 0015248 191.1212 168.9689 15.21447827142443 LituanicaSAT 2 1 42768U 17036D 20016.78370666 .00001404 00000-0 61629-4 0 9993 2 42768 97.3287 74.7336 0014704 187.7411 172.3602 15.23493840142591 Aalto 1 1 42775U 17036L 20016.17331756 .00000512 00000-0 25634-4 0 9996 2 42775 097.3220 072.6010 0013559 191.3639 168.7293 15.21617155142367 URSA MAIOR 1 42776U 17036M 20016.37708221 .00000569 00000-0 28070-4 0 9993 2 42776 97.3231 73.0213 0013403 190.4008 169.6953 15.21776375142406 Max Valier Sat 1 42778U 17036P 20016.59899566 .00000592 00000-0 28589-4 0 9993 2 42778 97.3279 74.2944 0011979 192.4206 167.6737 15.22352395142470 Pegasus 1 42784U 17036V 20016.43036519 .00000773 00000-0 35890-4 0 9998 2 42784 97.3246 74.3675 0011402 198.2376 161.8454 15.22890534142481 NUDATSat 1 42787U 17036Y 20016.21687990 .00001383 00000-0 59879-4 0 9993 2 42787 097.3287 075.2255 0009882 199.3264 160.7604 15.24044592142358 SUCHAI 1 1 42788U 17036Z 20016.11256652 .00000930 00000-0 42002-4 0 9997 2 42788 97.3253 74.5126 0010972 197.6538 162.4320 15.23377557142531 SKCUBE 1 42789U 17036AA 20016.20980427 .00000861 00000-0 39249-4 0 9994 2 42789 097.3248 074.5032 0010854 197.5940 162.4922 15.23246808142461 VZLUSAT 1 1 42790U 17036AB 20016.20476349 .00001168 00000-0 51004-4 0 9993 2 42790 097.3268 075.2090 0010454 195.5854 164.5063 15.24033451142508 VENTA 1 1 42791U 17036AC 20016.18288965 .00000799 00000-0 36613-4 0 9994 2 42791 097.3246 074.5256 0010502 197.8827 162.2042 15.23244661142452 Robusta 1B 1 42792U 17036AD 20016.64197153 .00000858 00000-0 38895-4 0 9994 2 42792 97.3250 75.1303 0010468 196.1234 163.9672 15.23427615142553 D-SAT 1 42794U 17036AF 20016.05197356 .00000320 00000-0 32880-4 0 9998 2 42794 97.5137 56.1389 0126993 156.3248 204.3886 14.91202934139831 TechnoSat 1 42829U 17042E 20016.81502583 .00000086 00000-0 14004-4 0 9997 2 42829 97.5407 265.5551 0015745 75.1378 285.1583 14.91045972136544 QIKCOM-1 1 42983U 98067NF 20016.55298776 .00002939 00000-0 41469-4 0 9995 2 42983 51.6400 355.5455 0003631 191.4903 168.6008 15.60301896126407 AO-91 1 43017U 17073E 20016.74551864 .00000198 00000-0 21019-4 0 9997 2 43017 97.7270 294.8494 0257271 187.5171 172.2154 14.78772286116599 EcAMSat 1 43019U 98067NG 20016.32239908 .00005634 00000-0 64595-4 0 9993 2 43019 51.6416 347.3205 0003993 173.9207 186.1837 15.63815016208818 PICSAT 1 43132U 18004X 20016.28646707 .00000913 00000-0 40592-4 0 9992 2 43132 97.4660 88.4639 0008481 224.9392 135.1160 15.24037085111721 AO-92 1 43137U 18004AC 20016.43085908 .00000697 00000-0 31910-4 0 9997 2 43137 97.4648 88.5132 0008027 226.1759 133.8815 15.23826658111732 TianYi 2 1 43155U 18008A 20016.82378640 .00000433 00000-0 29351-4 0 9996 2 43155 97.4660 89.6822 0016452 319.0491 151.0636 15.11416123109863 Zhou Enlai 1 43156U 18008B 20016.80674425 .00001084 00000-0 68728-4 0 9999 2 43156 97.4710 89.5306 0013563 317.8248 150.9677 15.10942474109823 TianYi 6 1 43158U 18008D 20016.84479897 .00000381 00000-0 26912-4 0 9999 2 43158 97.4673 88.8130 0012718 315.7548 152.2658 15.10495987109782 S-Net G 1 43186U 18014G 20016.69197555 .00000666 00000-0 63316-4 0 9993 2 43186 97.7026 286.9348 0011558 24.3120 335.8645 14.96738387106846 S-Net H 1 43187U 18014H 20016.02325713 .00000629 00000-0 60036-4 0 9995 2 43187 97.7024 286.2591 0011589 26.2395 333.9412 14.96737487106747 S-Net J 1 43188U 18014J 20016.02309841 .00000621 00000-0 59361-4 0 9991 2 43188 97.7026 286.2829 0011585 26.3283 333.8525 14.96737080106740 S-Net K 1 43189U 18014K 20016.69200208 .00000669 00000-0 63535-4 0 9992 2 43189 97.7024 286.9139 0011547 24.2456 335.9307 14.96737704105391 FMN 1 1 43192U 18015A 20016.80688061 .00001839 00000-0 76421-4 0 9995 2 43192 97.4230 147.3270 0014247 266.8682 197.0576 15.25005602108635 Shaonian Xing 1 43199U 18015H 20016.83291841 .00001239 00000-0 51928-4 0 9990 2 43199 97.4014 146.0101 0015300 278.4952 234.3769 15.25325080108691 1KUNS-PF 1 43466U 98067NP 20016.59755213 .00037836 00000-0 22885-3 0 9994 2 43466 51.6334 331.6404 0001465 107.7650 252.3510 15.77208394 96223 UBAKUSAT 1 43467U 98067NQ 20016.63349906 .00014426 00000-0 12996-3 0 9990 2 43467 51.6361 343.9652 0002133 126.0031 234.1164 15.68465725 96074 Irazu 1 43468U 98067NR 20016.20752330 .00114154 00000-0 37429-3 0 9990 2 43468 051.6330 321.3819 0003551 118.7192 241.4171 15.89715470196312 EnduroSat One 1 43551U 98067NZ 20016.35766779 .00020731 00000-0 17090-3 0 9990 2 43551 51.6357 346.6171 0003208 220.6551 139.4207 15.70321650 86245 EQUISat 1 43552U 98067PA 20016.21063779 .00014997 00000-0 14099-3 0 9999 2 43552 051.6383 351.7072 0003995 218.5128 141.5584 15.67367138086127 UiTMSat 1 1 43589U 98067PD 20015.32488740 .00018346 00000-0 16478-3 0 9994 2 43589 51.6352 356.1745 0003145 225.5751 134.4988 15.68321122 81720 Maya 1 1 43590U 98067PE 20016.21012561 .00018267 00000-0 16383-3 0 9996 2 43590 051.6358 351.5934 0003212 228.6374 131.4346 15.68360715081790 Bhutan 1 1 43591U 98067PF 20016.31981060 .00018580 00000-0 16601-3 0 9998 2 43591 51.6364 350.8708 0003359 231.0942 128.9755 15.68439611 81810 SiriusSat 1 1 43595U 98067PG 20016.12407385 .00015479 00000-0 14727-3 0 9995 2 43595 051.6353 354.7756 0002290 168.8251 191.2796 15.67042820080921 SiriusSat 2 1 43596U 98067PH 20016.81380614 .00016318 00000-0 15554-3 0 9999 2 43596 51.6365 351.9419 0002697 173.1655 186.9378 15.66946828 81027 Tanusha-3 1 43597U 98067PJ 20016.35393915 .00026004 00000-0 20800-3 0 9990 2 43597 51.6340 348.7487 0001672 176.3584 183.7426 15.70898339 81025 SurfSat 1 43614U 18070B 20016.64984506 .00001803 00000-0 47624-4 0 9994 2 43614 93.0354 91.3805 0014510 198.1694 161.9043 15.38468334 74986 CP-7 DAVE 1 43615U 18070C 20016.14834208 .00001723 00000-0 45685-4 0 9999 2 43615 093.0356 091.1695 0014584 199.6781 160.3911 15.38355074074903 ELFIN-B 1 43616U 18070D 20015.85115109 .00002221 00000-0 56893-4 0 9996 2 43616 093.0318 090.9562 0015017 204.2924 155.7624 15.39370772074885 ELFIN-A 1 43617U 18070E 20016.15975002 .00002565 00000-0 65411-4 0 9994 2 43617 93.0373 91.4681 0014511 199.1190 160.9522 15.39499053 74935 STARS-Me Mother 1 43640U 98067PQ 20016.25791486 .00008703 00000-0 10316-3 0 9990 2 43640 051.6372 003.2390 0004620 162.4412 197.6743 15.62110405072755 CubeBel 1 1 43666U 18083E 20016.86076028 .00000797 00000-0 42528-4 0 9999 2 43666 97.5032 44.7313 0015356 164.7963 8.7690 15.17955743 67461 Changshagaoxin 1 43669U 18083H 20016.79579100 .00000516 00000-0 29462-4 0 9994 2 43669 97.4909 43.3263 0011510 156.8930 203.2823 15.17064451 67387 Ten-Koh 1 43677U 18084G 20016.60361209 .00000179 00000-0 24280-4 0 9991 2 43677 97.8682 134.2093 0014849 305.6795 54.3039 14.90237096 66177 PO-101 1 43678U 18084H 20016.79408831 -.00000307 00000-0 -24887-4 0 9993 2 43678 97.8687 135.3890 0009139 330.2874 29.7821 14.91596272 66268 IRVINE 01 1 43693U 18088D 20016.61852258 .00001805 00000-0 76461-4 0 9998 2 43693 85.0362 178.1110 0019662 129.8258 230.4718 15.22209913 65593 QO-100 1 43700U 18090A 20016.80354772 .00000140 00000-0 00000 0 0 9991 2 43700 0.0018 116.8630 0001971 216.2661 97.6376 1.00268298 4426 Reaktor Hello World 1 43743U 18096AA 20016.85260091 .00000909 00000-0 36965-4 0 9996 2 43743 97.4388 91.4056 0016667 311.0763 160.7021 15.27050586 63100 MinXSS-2 1 43758U 18099A 20016.25568377 -.00000043 00000-0 13570-5 0 9995 2 43758 097.7244 090.5753 0015127 346.0977 013.9825 14.95552786061055 AO-95 1 43770U 18099N 20016.43092948 .00000163 00000-0 20185-4 0 9996 2 43770 97.7245 90.3526 0014302 353.9121 6.1924 14.94892798 61051 RANGE-B 1 43772U 18099Q 20016.46886163 .00000463 00000-0 47465-4 0 9994 2 43772 97.7303 90.7343 0013458 340.2768 19.7931 14.95043922 61052 RANGE-A 1 43773U 18099R 20016.68842352 .00000391 00000-0 41087-4 0 9995 2 43773 97.7189 90.3588 0012899 340.4716 19.6009 14.94896327 61087 MOVE-II 1 43780U 18099Y 20016.62006155 .00000674 00000-0 66415-4 0 9996 2 43780 97.7241 90.6593 0013045 351.4246 8.6750 14.95253610 61070 SNUSat 2 1 43782U 18099AA 20016.15227919 .00000564 00000-0 56540-4 0 9995 2 43782 097.7241 090.2347 0012100 342.3418 017.7381 14.95166264061019 SnugLite 1 43784U 18099AC 20016.13022249 .00000211 00000-0 24425-4 0 9990 2 43784 97.7203 90.0830 0014641 348.9846 11.1052 14.95254610 61020 ITASat 1 1 43786U 18099AE 20016.46324694 .00000141 00000-0 18052-4 0 9998 2 43786 97.7255 90.6936 0014714 346.8015 13.2818 14.95242805 61079 EAGLET 1 1 43790U 18099AJ 20016.15957810 .00000418 00000-0 42745-4 0 9994 2 43790 97.7250 90.5810 0013219 354.2313 5.8754 14.95622144 60738 ESEO 1 43792U 18099AL 20016.22805800 .00000177 00000-0 21152-4 0 9996 2 43792 097.7227 090.5415 0012966 351.0492 009.0496 14.95562560060808 CSIM 1 43793U 18099AM 20016.44644100 -.00000135 00000-0 -68494-5 0 9992 2 43793 97.7205 90.6688 0012478 346.5151 13.5735 14.95896388 60812 Astrocast 0.1 1 43798U 18099AS 20016.43440289 -.00000026 00000-0 28234-5 0 9994 2 43798 97.7241 90.9230 0011655 333.0287 27.0327 14.95807951 61074 JO-97 1 43803U 18099AX 20016.82937059 .00000269 00000-0 29525-4 0 9991 2 43803 97.7218 90.9127 0014685 346.8027 13.2808 14.95403038 61125 Suomi 100 1 43804U 18099AY 20016.09325202 .00000360 00000-0 37805-4 0 9994 2 43804 97.7218 90.1815 0014800 349.4405 10.6503 14.95396087 61027 Al Farabi 2 1 43805U 18099AZ 20016.81447315 .00000697 00000-0 68053-4 0 9997 2 43805 97.7221 90.9382 0014669 346.7502 13.3331 14.95487907 61133 PWSat 2 1 43814U 18099BJ 20016.82173924 .00018287 00000-0 12588-2 0 9994 2 43814 97.7775 95.3465 0003516 294.6952 65.3876 15.05930216 60708 CHOMPTT 1 43855U 18104G 20016.13298907 .00000747 00000-0 30221-4 0 9997 2 43855 85.0381 276.6137 0015256 258.4455 101.5078 15.22708768 60190 ISAT 1 43879U 18111D 20016.81545771 .00000484 00000-0 48073-4 0 9992 2 43879 97.7105 286.6282 0014083 39.9535 320.2720 14.96128458 55662 UWE-4 1 43880U 18111E 20016.21813723 .00000575 00000-0 55829-4 0 9991 2 43880 097.7117 286.2314 0013288 043.1676 317.0585 14.96365850057572 Sparrow 1 43881U 18111F 20016.47355122 .00000233 00000-0 25606-4 0 9995 2 43881 97.7119 286.5320 0013330 40.1233 320.0970 14.96417513 55618 Lume 1 1 43908U 18111AJ 20016.54536306 .00000831 00000-0 36256-4 0 9995 2 43908 97.2785 280.8792 0020566 327.6915 32.3062 15.24727585 58726 FO-98 1 43933U 19003B 20016.81613406 .00000506 00000-0 25108-4 0 9994 2 43933 97.2541 72.2165 0019657 62.4008 48.8110 15.21898225 55312 FO-99 1 43937U 19003F 20016.80992645 .00000918 00000-0 40428-4 0 9991 2 43937 97.2497 73.0380 0025550 47.0768 64.2853 15.24021078 55385 Delphini 1 1 44030U 98067PW 20016.26294557 .00011683 00000-0 14141-3 0 9993 2 44030 051.6372 009.2839 0003267 214.0618 146.0167 15.61164311054540 MYSat 1 1 44045U 18092F 20016.12914959 .00001813 00000-0 62021-4 0 9994 2 44045 051.6449 066.3080 0012546 129.8798 230.3312 15.35882336051726 AstroCast 0.2 1 44083U 19018F 20016.77699379 .00000745 00000-0 36254-4 0 9994 2 44083 97.4428 79.7717 0013165 353.7384 6.3685 15.21430520 44168 AISTechSat 3 1 44103U 19018AB 20016.81380206 .00000669 00000-0 31471-4 0 9999 2 44103 97.4302 79.8853 0013876 11.0590 81.5063 15.22924495 44206 AISat 1 1 44104U 19018AC 20016.15851625 .00000534 00000-0 19718-4 0 9996 2 44104 97.4842 84.7328 0059566 38.3551 322.1902 15.30795790 44358 Raavana-1 1 44329U 98067QE 20016.70118553 .00006375 00000-0 10032-3 0 9991 2 44329 51.6412 18.2643 0006704 146.0464 214.0957 15.54985125 33211 Uguisu 1 44330U 98067QF 20016.19297784 .00006323 00000-0 99785-4 0 9996 2 44330 051.6407 020.8684 0006724 142.8515 217.2942 15.54922883033114 NepaliSat-1 1 44331U 98067QG 20016.05383950 .00006190 00000-0 97543-4 0 9995 2 44331 51.6408 21.4412 0006734 145.0081 215.1354 15.55007756 33103 Prox-1 1 44339U 19036A 20016.23958718 .00000667 00000-0 10899-3 0 9993 2 44339 24.0052 355.8032 0010243 277.1315 82.8035 14.52804005 29826 OBJECT H 1 44346U 19036H 20016.87717451 .00768998 16091-3 45821-2 0 9998 2 44346 28.5180 287.0395 0161066 151.0357 209.9238 15.60680989 31002 OBJECT J 1 44347U 19036J 20016.14735437 .00025833 00000-0 36788-3 0 9990 2 44347 28.5340 299.0970 0340530 128.0938 235.0858 15.09070294 30829 OBJECT K 1 44348U 19036K 20016.14356310 .00007335 00000-0 10945-3 0 9994 2 44348 28.5207 306.6935 0378201 115.6712 248.3411 14.99829295 30740 Armadillo 1 44352U 19036P 20016.17549025 .00011394 00000-0 17312-3 0 9994 2 44352 028.5341 305.2273 0370433 117.7125 246.1547 15.01385519030717 NO-104 1 44354U 19036R 20016.17127137 .00007993 00000-0 11790-3 0 9996 2 44354 028.5301 305.1261 0375555 117.4452 246.4842 15.00692087030756 NO-103 1 44355U 19036S 20016.00184339 .00014420 00000-0 21128-3 0 9995 2 44355 28.5298 303.7627 0363884 119.6936 244.0385 15.03602080 30747 Oculus-ASR 1 44356U 19036T 20016.13343932 .00036609 00000-0 46988-3 0 9990 2 44356 28.5291 293.9058 0331776 135.6521 227.1149 15.13071305 30866 CP9 1 44360U 19036X 20016.06310877 .00022013 -52956-5 26686-3 0 9999 2 44360 028.5161 298.0166 0356722 129.4081 233.8657 15.07891124030694 Move-IIb 1 44398U 19038N 20016.36266770 .00001002 00000-0 61872-4 0 9996 2 44398 97.5167 339.7757 0024041 296.8724 63.0049 15.11984625 29448 SONATE 1 44400U 19038Q 20016.17073638 .00000489 00000-0 32310-4 0 9991 2 44400 97.5191 339.6048 0023868 295.5754 64.3009 15.11803145 29410 BeeSat 9 1 44412U 19038AC 20016.14843362 .00000634 00000-0 40514-4 0 9997 2 44412 97.5182 339.6223 0021575 301.9437 57.9695 15.12041415 29101 JAISAT-1 1 44419U 19038F 20016.41608506 .00000632 00000-0 39899-4 0 9995 2 44419 97.5185 340.0345 0020409 300.6631 59.2588 15.12525102 29464 LightSail-2 1 44420U 19036AC 20016.30251304 .00006551 00000-0 14696-2 0 9995 2 44420 24.0103 354.4078 0013584 228.9068 131.0042 14.54138405 27985 Taurus 1 1 44530U 19059C 20016.81399980 -.00000481 00000-0 -12388-3 0 9996 2 44530 98.5790 96.4171 0014954 247.5404 112.4206 14.45259482 18293 MO-106 1 44830U 19084G 20016.09239917 .00020623 00000-0 19054-3 0 9995 2 44830 96.9979 245.0105 0040959 100.9226 259.6648 15.66462250 6366 TRSI-Sat 1 44831U 19084H 20014.36684174 .00023083 00000-0 21369-3 0 9998 2 44831 96.9982 243.3029 0040749 106.4477 254.1269 15.66404590 6107 MO-105 1 44832U 19084J 20016.40752071 .00023820 00000-0 21801-3 0 9998 2 44832 96.9980 245.3378 0040405 99.0460 261.5377 15.66696255 6410 Duchifat 3 1 44854U 19089C 20016.82277116 .00000328 00000-0 33025-4 0 9995 2 44854 36.9689 280.2888 0009495 271.2840 88.6813 14.98951438 5387 OPS-SAT 1 44878U 19092F 20016.23767348 -.00000066 00000-0 00000 0 0 9993 2 44878 97.4644 202.1655 0015069 161.2649 198.9396 15.15203802 4330 FloripaSat 1 1 44885U 19093G 20016.80143763 .00000227 00000-0 35380-4 0 9996 2 44885 97.9741 93.7927 0014852 178.3848 181.7410 14.81953999 4097 /EX
